Weather in Dulesovo

Russia / Udmurt Republic     56°32′57″N   53°46′54″E
temp.,
°C
wind,
m/s
gust,
m/s
humid.,
%
clouds,
%
prec.,
mm/h
press.,
hPa
HPBL,
m
21 april, wed
wed2101:00+2se22530 0.0 103111
04:00+1ese22550 0.0 103211
07:00+3se265193 0.0 1032183
10:00+8sse5835100 0.0 1031805
13:00+11sse693197 0.0 10301242
16:00+12sse71031100 0.0 10281403
19:00+10sse61239100 0.0 1027549
22:00+8sse51346100 0.0 1027487
22 april, thu
thu2201:00+6s61260100 0.1 1027943
04:00+5s61480100 0.6 1027999
07:00+3s61396100 2.0 1027817
10:00+4s61196100 3.1 1028710
13:00+4s61096100 0.3 1029649
16:00+4s51095100 0.3 1029542
19:00+4s51095100 0.3 1029533
22:00+4s5991100 0.3 1029471
23 april, fri
fri2301:00+3s4897100 0.0 1028474
04:00+2sse3697100 0.2 1028388
07:00+2sse3599100 0.1 1029323
10:00+3sse2498100 0.1 1029286
13:00+5sse239399 0.0 1029353
16:00+7ese227996 0.0 1028598
19:00+7ese2379100 0.0 1028168
22:00+6ene3484100 0.0 1027120
24 april, sat
sat2401:00+3ene3794100 0.0 1025146
04:00+4ne3791100 0.0 1023216
07:00+5ene3789100 0.0 1022283
10:00+5ene3595100 0.9 1020196
13:00+6ene3797100 1.4 1018324
16:00+6ese2597100 2.3 1017283
19:00+6ene3694100 0.3 1016204
22:00+5nne2697100 2.4 1014210
25 april, sun
sun2501:00+6se3798100 0.4 1012229
04:00+5se3798100 1.8 1012336
07:00+5sse3697100 0.3 1011335
10:00+10s6769100 0.3 10091163
13:00+8ssw7118597 2.3 10091185
16:00+11wsw812537 2.8 10112061
19:00+8wsw510621 0.3 1012393
22:00+5ssw310792 0.3 1014189